Location: Luz Observatory
(34.5000°N, 117.2833°W)
Time: 11:48:41
(UTC-07:00)

HST - Visible Passes

Search period start: 02 September 2014 00:00
Search period end: 12 September 2014 00:00
Orbit: 547 x 552 km, 28.5° (Epoch: 01 September)

Date Brightness Start Highest point End Pass type
(mag) Time Alt. Az. Time Alt. Az. Time Alt. Az.
04 Sep 2.8 20:07:19 10° S 20:09:12 13° SSE 20:09:52 12° SSE visible
05 Sep 2.6 19:59:32 10° SSW 20:02:08 16° SSE 20:03:38 14° SE visible
06 Sep 2.4 19:52:02 10° SSW 19:55:05 20° SSE 19:57:17 14° SE visible
06 Sep 3.4 21:32:17 10° WSW 21:32:51 13° WSW 21:32:51 13° WSW visible
07 Sep 2.2 19:44:42 10° SW 19:48:02 23° SSE 19:50:50 13° ESE visible
07 Sep 3.1 21:25:14 10° WSW 21:26:24 17° SW 21:26:24 17° SW visible
08 Sep 2.1 19:37:27 10° SW 19:40:59 27° SSE 19:44:19 11° ESE visible
08 Sep 2.8 21:18:13 10° WSW 21:19:53 21° SW 21:19:53 21° SW visible
09 Sep 1.9 19:30:17 10° SW 19:33:58 30° S 19:37:38 10° ESE visible
09 Sep 2.6 21:11:14 10° WSW 21:13:19 24° SW 21:13:19 24° SW visible
10 Sep 1.8 19:23:10 10° WSW 19:26:56 33° S 19:30:42 10° ESE visible
10 Sep 2.4 21:04:16 10° WSW 21:06:42 26° SW 21:06:42 26° SW visible
11 Sep 2.3 20:57:20 10° WSW 21:00:04 27° SW 21:00:04 27° SW visible
